SCP
0 0 0 0 0 0 0 0 0 0 0 0 0 0 0 0 0 0 0 0 0 0 0 0 0 0 0 0 0 0 -0 -0 0 -0 0 -0 -0 0 0 -0 0 0 0 0 0
0 0 0 0 0 0 0 0 0 0 0 0 0 0 0 0 0 0 0 0 0 0 0 0 0 0 0 0 0 0 0 -0 0 0 0 0 0 0 0 0 0 0 0 0 0
0 0 0 0 0 0 0 0 0 0 0 0 0 0 0 0 0 0 0 0 0 0 0 0 0 0 0 0 0 0 0 0 0 0 0 0 0 0 0 0 0 0 0 0 0
0 0 0 0 0 0 0 0 0 0 0 0 0 0 0 0 0 0 0 0 0 0 0 0 0 0 0 0 0 0 0 0 0 0 0 0 0 0 0 0 0 0 0 0 0
0 0 0 0 0 0 0 0 0 0 0 0 0 0 0 0 0 0 0 0 0 0 0 0 0 0 0 0 0 0 0 0 0 0 0 0 0 0 0 0 0 0 0 0 0
0 0 0 0 0 0 0 0 -0 0 0 0 0 0 0 0 0 0 0 0 0 0 0 0 0 0 0 0 0 0 0 0 0 0 0 0 0 0 0 0 0 0 0 0 0
0 0 0 0 0 0 0 0 0 0 0 0 0 0 0 0 0 0 0 0 0 0 0 0 0 0 0 0 0 0 0 0 0 0 0 0 0 0 0 0 0 0 0 0 0
0 0 0 0 0 0 0 0 0 0 0 -0 0 0 0 0 0 0 0 0 0 0 0 0 0 0 0 0 0 0 0 0 0 0 0 0 0 0 0 0 0 0 0 0 0
0 0 0 0 0 0 0 0 0 0 0 0 0 0 0 0 0 0 0 0 0 0 0 0 0 0 0 0 0 0 0 0 0 0 0 0 0 0 0 0 0 0 0 0 0
0 0 0 0 0 0 0 0 0 0 0 0 0 0 0 0 0 0 0 0 0 0 0 0 0 0 0 0 0 0 0 0 0 0 0 0 0 0 0 0 0 0 0 0 0
0 0 0 0 0 0 0 0 0 0 0 0 0 0 0 0 0 0 0 0 0 0 0 0 0 0 0 0 0 0 0 0 0 0 0 0 0 0 0 0 0 0 0 0 0
0 0 0 0 0 0 -0 0 0 0 0 0 0 0 0 0 0 0 0 0 0 0 0 0 0 0 0 0 0 0 0 0 0 0 0 0 0 0 0 0 0 0 0 0 0
0 0 0 0 0 0 -0 -0 -0 0 0 0 0 0 0 0 0 0 0 0 0 0 0 0 0 0 0 0 0 0 0 0 0 0 0 0 0 0 0 0 0 0 0 0 0
0 0 0 0 0 0 0 -0 -0 0 0 0 0 0 0 0 0 0 0 0 0 0 0 0 0 0 0 0 0 0 0 0 0 0 0 0 0 0 0 0 0 0 0 0 0
0 0 0 0 0 0 0 -0 -0 0 0 0 0 0 0 0 0 0 0 0 0 0 0 0 0 0 0 0 0 0 0 0 0 0 0 0 0 0 0 0 0 0 0 0 0
0 0 0 0 0 0 0 -0 0 0 0 0 0 0 0 0 0 0 0 0 0 0 0 0 0 0 0 0 0 0 0 0 0 0 0 0 0 0 0 0 0 0 0 0 0
0 0 0 0 0 0 0 0 0 0 0 0 0 0 0 0 0 0 0 0 0 0 0 0 0 0 0 0 0 0 0 0 0 0 0 0 0 0 0 0 0 0 0 0 0
0 0 0 0 0 0 0 0 0 0 0 0 0 0 0 0 0 0 0 0 0 0 0 0 0 0 0 0 0 0 0 0 0 0 0 0 0 0 0 0 0 0 0 0 0
0 0 0 0 0 0 0 0 0 0 0 0 0 0 0 0 0 0 0 0 0 0 0 0 0 0 0 0 0 0 0 0 0 0 0 0 0 0 0 0 0 0 0 0 0
0 0 0 0 0 0 0 0 0 0 0 0 0 0 0 0 0 0 0 0 0 0 0 0 0 0 0 0 0 0 0 0 0 0 0 0 0 0 0 0 0 0 0 0 0
0 0 0 0 0 0 0 0 0 0 0 0 0 0 0 0 0 0 0 0 0 0 0 0 0 0 0 0 0 0 0 0 0 0 0 0 0 0 0 0 0 0 0 0 0
0 0 0 0 0 0 0 0 0 0 0 0 0 0 0 0 0 0 0 0 0 0 0 0 0 0 0 0 0 0 0 0 0 0 0 0 0 0 0 0 0 0 0 0 0
0 0 0 0 0 0 0 0 0 0 0 0 0 0 0 0 0 0 0 0 0 0 0 0 0 0 0 0 0 0 0 0 0 0 0 0 0 0 0 0 0 0 0 0 0
0 0 0 0 0 0 0 0 0 0 0 0 0 0 0 0 0 0 0 0 0 0 0 0 0 0 0 0 0 0 0 0 0 0 0 0 0 0 0 0 0 0 0 0 0
0 0 0 0 0 0 0 0 0 0 0 0 0 0 0 0 0 0 0 0 0 0 0 0 0 0 0 0 0 0 0 0 0 0 0 0 0 0 0 0 0 0 0 0 0
0 0 0 0 0 0 0 0 0 0 0 0 0 0 0 0 0 -0 0 0 0 0 0 0 0 0 0 0 0 0 0 0 0 0 0 0 0 0 0 0 0 0 0 0 0
0 0 0 0 0 0 0 0 0 0 0 0 0 0 0 0 0 0 0 0 0 0 0 0 0 0 0 0 0 0 0 0 0 0 0 0 0 0 0 0 0 0 0 0 0
Wind_Speed_500mb
28 29 30 30 29 25 24 24 25 20 17 18 19 20 8 5 9 11 5 5 2 4 4 12 24 28 28 13 10 8 7 3 6 8 4 9 10 5 10 12 12 7 5 6 7
28 29 31 31 30 25 25 25 28 23 17 14 16 14 8 8 10 11 10 7 4 6 8 14 26 29 13 10 8 8 7 13 3 1 2 5 6 13 11 15 11 16 16 12 17
29 29 30 33 31 27 25 24 28 22 18 11 14 8 11 8 10 5 11 6 3 9 17 20 29 14 9 10 5 7 9 6 2 1 2 2 6 5 2 8 14 12 16 24 17
35 31 30 31 31 30 27 23 25 23 18 11 11 8 9 7 2 9 8 3 3 17 22 22 18 9 7 11 7 5 3 3 1 2 3 5 6 8 19 18 17 25 23 16 8
36 36 35 33 30 31 28 27 23 22 18 13 10 10 7 4 6 11 4 2 9 19 22 18 18 9 11 9 8 5 1 3 4 10 13 12 16 14 32 44 29 9 6 15 23
38 38 36 37 36 33 31 30 24 20 15 14 12 9 5 2 7 8 2 5 8 16 21 20 14 11 14 6 6 5 1 8 4 4 6 7 9 1 11 9 20 14 21 39 43
38 41 40 40 41 41 36 31 27 18 13 14 12 8 8 5 5 11 1 6 10 12 19 16 19 9 15 8 6 3 3 2 9 11 5 16 9 14 13 10 13 26 44 40 29
37 40 43 46 46 46 43 33 28 22 15 12 11 9 5 8 7 11 1 4 11 18 20 19 18 17 8 15 9 7 8 4 3 15 4 8 17 5 14 5 42 38 26 20 12
39 42 41 47 50 50 43 35 23 15 10 13 9 6 4 6 5 7 2 6 10 12 12 13 9 9 9 9 6 12 3 3 15 8 7 7 16 9 15 47 50 28 22 3 3
36 39 40 43 50 52 42 33 16 7 7 8 11 7 6 4 4 3 3 10 6 14 8 2 6 7 7 7 6 4 2 4 9 8 9 11 31 27 40 39 42 31 12 1 10
36 37 40 38 45 50 41 24 11 9 5 9 6 6 4 6 6 4 4 10 11 6 4 7 8 4 9 5 8 12 6 4 8 6 11 10 20 40 31 28 19 10 6 9 14
38 36 38 39 38 40 35 13 10 11 17 16 17 14 11 5 4 5 6 9 5 5 2 9 1 6 10 9 10 8 4 7 10 3 3 13 40 27 12 10 7 14 17 18 9
49 40 38 36 36 24 28 21 13 15 7 8 11 8 6 8 5 6 9 10 7 7 4 9 3 9 3 4 6 5 6 4 2 14 6 15 15 10 3 2 5 17 18 12 4
47 38 35 35 29 22 18 24 24 19 5 6 3 2 6 6 2 2 9 6 6 10 11 7 6 8 2 3 6 2 7 6 6 7 6 8 9 11 7 10 9 17 21 13 10
44 37 30 26 28 25 23 12 24 11 5 1 3 6 8 6 7 1 6 4 11 8 8 6 13 7 5 5 6 5 4 5 3 3 6 4 6 15 5 13 17 20 28 15 15
34 36 29 29 28 29 11 14 8 5 17 4 2 4 6 2 2 6 2 7 10 7 8 5 2 3 3 5 4 8 7 10 7 4 6 5 6 12 9 12 6 10 30 14 28
39 38 31 29 27 25 10 5 6 7 9 5 3 3 3 7 4 8 7 6 9 9 7 2 4 3 4 6 2 5 9 6 10 8 9 7 2 22 12 12 7 13 21 13 32
33 27 29 34 34 21 20 5 9 10 12 6 7 4 3 4 5 6 7 5 6 5 6 11 8 10 6 3 7 3 9 10 11 4 9 6 12 12 10 3 15 16 18 20 39
31 25 33 35 34 37 19 10 13 12 18 2 5 2 5 4 4 8 12 9 13 18 15 9 4 3 7 4 4 5 2 4 14 4 6 5 14 21 12 15 12 20 13 30 45
45 31 38 36 33 36 5 20 9 4 8 5 17 7 7 4 6 9 13 5 10 7 0 10 8 3 4 3 11 4 10 7 6 2 9 9 12 11 9 6 11 16 17 33 49
35 16 15 31 31 18 14 13 9 10 13 14 8 7 9 3 3 6 7 1 4 7 4 7 5 1 4 11 13 4 2 8 7 5 9 4 13 15 15 10 14 16 24 34 45
26 10 13 37 11 9 15 12 13 11 7 4 8 7 13 18 8 8 8 4 6 14 13 7 8 7 6 0 2 5 9 9 8 9 2 5 16 7 14 14 16 23 32 45 43
20 23 22 53 17 25 4 6 9 11 11 14 14 7 4 12 6 5 5 4 8 6 10 10 2 5 7 3 5 8 9 8 8 5 12 11 13 4 7 9 21 27 38 58 39
13 7 21 44 21 11 35 22 10 18 8 9 10 12 7 5 4 7 5 2 1 2 8 9 3 10 11 7 9 10 11 13 11 7 9 19 20 41 27 16 19 39 55 43 33
21 10 12 8 21 17 12 18 31 17 11 15 4 9 12 10 7 10 7 2 3 8 5 6 8 4 6 8 4 6 9 24 20 14 16 27 20 37 17 17 29 51 52 39 35
28 15 15 19 18 34 38 24 41 8 21 11 8 26 22 14 18 18 16 9 9 3 9 2 4 3 8 2 10 10 19 26 35 13 26 28 43 53 61 49 41 45 31 35 35
41 50 37 19 18 16 36 48 35 15 21 17 32 12 21 21 20 13 13 15 7 13 10 10 9 5 10 5 8 13 21 33 11 11 19 17 32 5 12 9 25 35 32 39 29
Wind_Direction_500mb
1 357 358 357 350 345 335 338 336 333 323 319 332 336 321 218 349 2 333 320 295 164 172 183 174 175 176 155 123 118 68 235 255 164 273 359 20 360 333 299 307 287 269 210 260
2 356 355 356 348 348 335 338 338 333 328 316 336 342 345 246 304 328 349 12 7 128 157 161 155 155 141 133 139 100 126 217 236 162 104 344 4 329 342 339 302 281 257 245 291
359 355 354 351 347 347 335 338 339 333 329 312 335 341 358 287 304 301 343 349 335 154 141 140 143 129 105 137 156 154 183 208 244 98 49 323 273 230 218 276 231 267 275 281 288
351 354 351 351 349 344 335 335 339 332 325 307 331 323 317 339 231 326 343 1 121 160 155 145 157 126 114 149 163 151 194 163 119 193 245 245 266 254 214 241 291 287 276 284 282
352 348 350 351 343 344 335 329 336 330 319 303 302 330 317 295 287 317 337 88 138 164 176 165 160 142 140 138 130 151 235 255 252 265 267 269 246 242 258 270 271 236 243 293 287
354 350 348 344 340 343 338 327 324 324 313 306 282 295 320 333 316 336 333 98 142 175 181 178 176 149 116 114 144 157 282 298 273 335 279 293 285 20 278 179 198 257 267 307 287
352 353 350 345 342 339 336 328 316 311 292 304 273 279 282 251 309 355 47 111 130 149 179 169 151 146 131 114 121 86 161 22 28 344 330 331 270 230 236 204 266 288 295 296 293
343 349 352 349 345 339 333 323 317 299 263 292 275 271 262 231 264 345 114 132 131 118 119 124 135 118 97 125 45 57 56 9 8 9 4 33 276 294 179 346 311 307 316 315 298
330 335 345 350 346 339 333 322 323 305 266 268 253 247 253 242 242 326 148 155 139 142 124 127 146 97 107 104 39 18 230 320 324 60 338 69 278 278 224 312 308 314 336 352 355
319 324 331 341 344 337 336 325 318 313 289 229 232 279 242 230 257 322 152 150 146 137 124 133 69 79 42 74 217 199 354 299 253 323 7 286 271 280 288 299 299 311 332 117 152
305 313 324 334 335 337 337 337 329 266 271 240 194 240 247 280 239 223 197 147 137 127 93 31 70 214 143 111 106 108 103 282 270 326 357 267 275 284 288 278 269 256 246 179 177
307 305 307 330 335 337 338 13 25 324 311 257 241 240 246 250 233 232 183 174 138 128 125 35 158 140 126 99 103 90 99 273 278 337 339 303 291 278 264 242 215 195 170 171 176
288 299 303 312 326 337 348 1 346 340 271 267 226 219 208 213 226 207 187 165 116 120 128 147 145 146 127 125 108 132 167 197 232 333 235 296 292 341 33 113 175 188 171 164 349
284 293 297 303 314 323 336 359 346 336 9 236 216 216 185 177 249 179 171 160 46 149 135 117 146 136 119 168 128 189 146 80 334 3 281 16 277 302 294 284 227 200 195 196 329
267 281 293 290 294 299 306 341 347 338 350 70 194 136 165 169 133 64 153 139 148 137 134 193 154 147 169 256 161 154 78 73 74 115 16 343 61 273 343 267 240 223 215 218 318
306 266 280 283 284 276 268 23 273 9 228 289 116 155 104 176 161 144 143 103 106 103 46 99 91 105 122 81 71 142 91 53 48 46 13 264 108 275 208 217 228 205 211 233 331
314 259 260 257 264 251 217 137 76 217 337 256 221 122 277 181 200 191 172 161 157 117 191 77 149 108 128 109 17 90 73 342 350 7 222 360 308 248 258 244 227 206 193 280 330
321 321 257 247 250 239 166 55 183 183 266 337 93 83 212 169 221 172 138 223 230 106 119 155 293 163 154 174 192 157 154 154 218 247 280 332 235 250 219 299 247 196 195 308 334
301 297 265 246 241 238 171 243 216 199 149 232 42 196 242 236 270 173 201 219 201 180 173 139 173 86 46 72 73 200 126 132 101 55 40 255 286 288 246 253 186 211 250 325 336
312 307 262 242 241 206 156 226 238 145 119 106 174 171 238 221 187 227 172 213 181 184 139 187 96 34 146 90 50 139 142 78 4 92 297 283 279 244 292 274 233 243 249 330 331
310 280 244 219 204 189 211 217 207 213 151 174 191 139 173 252 233 239 226 295 131 132 96 138 103 80 89 200 178 130 359 46 112 120 174 277 262 218 225 233 238 232 240 334 329
286 259 228 185 175 205 221 185 180 167 173 167 130 171 183 172 195 245 231 222 172 164 162 185 129 161 193 20 192 169 181 159 124 227 159 140 270 195 226 248 232 231 255 316 320
283 268 209 189 221 219 178 238 198 152 193 185 165 159 155 166 220 228 270 350 174 161 152 191 264 72 350 14 2 220 186 123 114 92 197 141 262 170 244 221 236 246 277 309 311
267 271 211 210 238 229 221 227 219 205 186 180 127 109 128 177 240 184 258 49 196 167 107 113 115 184 192 163 127 190 181 171 137 132 182 229 280 283 277 262 258 272 297 305 303
213 253 262 215 226 225 204 186 204 195 209 171 124 198 166 170 167 213 209 116 347 176 75 138 210 186 247 219 196 219 180 178 203 190 190 269 222 261 266 270 284 299 300 298 298
213 226 286 313 285 203 223 220 215 192 163 198 182 188 193 173 192 186 156 179 198 109 157 84 223 143 291 299 184 257 215 197 219 219 257 264 283 272 273 277 271 279 283 284 298
254 232 244 272 305 280 218 226 234 149 216 183 199 143 192 221 118 100 131 139 190 158 167 157 144 122 262 357 312 284 227 198 184 193 196 200 237 337 277 249 264 280 276 276 283
Wind_Speed_850mb
28 29 30 30 29 25 24 24 25 20 17 18 19 20 8 5 9 11 5 5 2 4 4 12 24 28 28 13 10 8 7 3 6 8 4 9 10 5 10 12 12 7 5 6 7
28 29 31 31 30 25 25 25 28 23 17 14 16 14 8 8 10 11 10 7 4 6 8 14 26 29 13 10 8 8 7 13 3 1 2 5 6 13 11 15 11 16 16 12 17
29 29 30 33 31 27 25 24 28 22 18 11 14 8 11 8 10 5 11 6 3 9 17 20 29 14 9 10 5 7 9 6 2 1 2 2 6 5 2 8 14 12 16 24 17
35 31 30 31 31 30 27 23 25 23 18 11 11 8 9 7 2 9 8 3 3 17 22 22 18 9 7 11 7 5 3 3 1 2 3 5 6 8 19 18 17 25 23 16 8
36 36 35 33 30 31 28 27 23 22 18 13 10 10 7 4 6 11 4 2 9 19 22 18 18 9 11 9 8 5 1 3 4 10 13 12 16 14 32 44 29 9 6 15 23
38 38 36 37 36 33 31 30 24 20 15 14 12 9 5 2 7 8 2 5 8 16 21 20 14 11 14 6 6 5 1 8 4 4 6 7 9 1 11 9 20 14 21 39 43
38 41 40 40 41 41 36 31 27 18 13 14 12 8 8 5 5 11 1 6 10 12 19 16 19 9 15 8 6 3 3 2 9 11 5 16 9 14 13 10 13 26 44 40 29
37 40 43 46 46 46 43 33 28 22 15 12 11 9 5 8 7 11 1 4 11 18 20 19 18 17 8 15 9 7 8 4 3 15 4 8 17 5 14 5 42 38 26 20 12
39 42 41 47 50 50 43 35 23 15 10 13 9 6 4 6 5 7 2 6 10 12 12 13 9 9 9 9 6 12 3 3 15 8 7 7 16 9 15 47 50 28 22 3 3
36 39 40 43 50 52 42 33 16 7 7 8 11 7 6 4 4 3 3 10 6 14 8 2 6 7 7 7 6 4 2 4 9 8 9 11 31 27 40 39 42 31 12 1 10
36 37 40 38 45 50 41 24 11 9 5 9 6 6 4 6 6 4 4 10 11 6 4 7 8 4 9 5 8 12 6 4 8 6 11 10 20 40 31 28 19 10 6 9 14
38 36 38 39 38 40 35 13 10 11 17 16 17 14 11 5 4 5 6 9 5 5 2 9 1 6 10 9 10 8 4 7 10 3 3 13 40 27 12 10 7 14 17 18 9
49 40 38 36 36 24 28 21 13 15 7 8 11 8 6 8 5 6 9 10 7 7 4 9 3 9 3 4 6 5 6 4 2 14 6 15 15 10 3 2 5 17 18 12 4
47 38 35 35 29 22 18 24 24 19 5 6 3 2 6 6 2 2 9 6 6 10 11 7 6 8 2 3 6 2 7 6 6 7 6 8 9 11 7 10 9 17 21 13 10
44 37 30 26 28 25 23 12 24 11 5 1 3 6 8 6 7 1 6 4 11 8 8 6 13 7 5 5 6 5 4 5 3 3 6 4 6 15 5 13 17 20 28 15 15
34 36 29 29 28 29 11 14 8 5 17 4 2 4 6 2 2 6 2 7 10 7 8 5 2 3 3 5 4 8 7 10 7 4 6 5 6 12 9 12 6 10 30 14 28
39 38 31 29 27 25 10 5 6 7 9 5 3 3 3 7 4 8 7 6 9 9 7 2 4 3 4 6 2 5 9 6 10 8 9 7 2 22 12 12 7 13 21 13 32
33 27 29 34 34 21 20 5 9 10 12 6 7 4 3 4 5 6 7 5 6 5 6 11 8 10 6 3 7 3 9 10 11 4 9 6 12 12 10 3 15 16 18 20 39
31 25 33 35 34 37 19 10 13 12 18 2 5 2 5 4 4 8 12 9 13 18 15 9 4 3 7 4 4 5 2 4 14 4 6 5 14 21 12 15 12 20 13 30 45
45 31 38 36 33 36 5 20 9 4 8 5 17 7 7 4 6 9 13 5 10 7 0 10 8 3 4 3 11 4 10 7 6 2 9 9 12 11 9 6 11 16 17 33 49
35 16 15 31 31 18 14 13 9 10 13 14 8 7 9 3 3 6 7 1 4 7 4 7 5 1 4 11 13 4 2 8 7 5 9 4 13 15 15 10 14 16 24 34 45
26 10 13 37 11 9 15 12 13 11 7 4 8 7 13 18 8 8 8 4 6 14 13 7 8 7 6 0 2 5 9 9 8 9 2 5 16 7 14 14 16 23 32 45 43
20 23 22 53 17 25 4 6 9 11 11 14 14 7 4 12 6 5 5 4 8 6 10 10 2 5 7 3 5 8 9 8 8 5 12 11 13 4 7 9 21 27 38 58 39
13 7 21 44 21 11 35 22 10 18 8 9 10 12 7 5 4 7 5 2 1 2 8 9 3 10 11 7 9 10 11 13 11 7 9 19 20 41 27 16 19 39 55 43 33
21 10 12 8 21 17 12 18 31 17 11 15 4 9 12 10 7 10 7 2 3 8 5 6 8 4 6 8 4 6 9 24 20 14 16 27 20 37 17 17 29 51 52 39 35
28 15 15 19 18 34 38 24 41 8 21 11 8 26 22 14 18 18 16 9 9 3 9 2 4 3 8 2 10 10 19 26 35 13 26 28 43 53 61 49 41 45 31 35 35
41 50 37 19 18 16 36 48 35 15 21 17 32 12 21 21 20 13 13 15 7 13 10 10 9 5 10 5 8 13 21 33 11 11 19 17 32 5 12 9 25 35 32 39 29
Wind_Direction_850mb
1 357 358 357 350 345 335 338 336 333 323 319 332 336 321 218 349 2 333 320 295 164 172 183 174 175 176 155 123 118 68 235 255 164 273 359 20 360 333 299 307 287 269 210 260
2 356 355 356 348 348 335 338 338 333 328 316 336 342 345 246 304 328 349 12 7 128 157 161 155 155 141 133 139 100 126 217 236 162 104 344 4 329 342 339 302 281 257 245 291
359 355 354 351 347 347 335 338 339 333 329 312 335 341 358 287 304 301 343 349 335 154 141 140 143 129 105 137 156 154 183 208 244 98 49 323 273 230 218 276 231 267 275 281 288
351 354 351 351 349 344 335 335 339 332 325 307 331 323 317 339 231 326 343 1 121 160 155 145 157 126 114 149 163 151 194 163 119 193 245 245 266 254 214 241 291 287 276 284 282
352 348 350 351 343 344 335 329 336 330 319 303 302 330 317 295 287 317 337 88 138 164 176 165 160 142 140 138 130 151 235 255 252 265 267 269 246 242 258 270 271 236 243 293 287
354 350 348 344 340 343 338 327 324 324 313 306 282 295 320 333 316 336 333 98 142 175 181 178 176 149 116 114 144 157 282 298 273 335 279 293 285 20 278 179 198 257 267 307 287
352 353 350 345 342 339 336 328 316 311 292 304 273 279 282 251 309 355 47 111 130 149 179 169 151 146 131 114 121 86 161 22 28 344 330 331 270 230 236 204 266 288 295 296 293
343 349 352 349 345 339 333 323 317 299 263 292 275 271 262 231 264 345 114 132 131 118 119 124 135 118 97 125 45 57 56 9 8 9 4 33 276 294 179 346 311 307 316 315 298
330 335 345 350 346 339 333 322 323 305 266 268 253 247 253 242 242 326 148 155 139 142 124 127 146 97 107 104 39 18 230 320 324 60 338 69 278 278 224 312 308 314 336 352 355
319 324 331 341 344 337 336 325 318 313 289 229 232 279 242 230 257 322 152 150 146 137 124 133 69 79 42 74 217 199 354 299 253 323 7 286 271 280 288 299 299 311 332 117 152
305 313 324 334 335 337 337 337 329 266 271 240 194 240 247 280 239 223 197 147 137 127 93 31 70 214 143 111 106 108 103 282 270 326 357 267 275 284 288 278 269 256 246 179 177
307 305 307 330 335 337 338 13 25 324 311 257 241 240 246 250 233 232 183 174 138 128 125 35 158 140 126 99 103 90 99 273 278 337 339 303 291 278 264 242 215 195 170 171 176
288 299 303 312 326 337 348 1 346 340 271 267 226 219 208 213 226 207 187 165 116 120 128 147 145 146 127 125 108 132 167 197 232 333 235 296 292 341 33 113 175 188 171 164 349
284 293 297 303 314 323 336 359 346 336 9 236 216 216 185 177 249 179 171 160 46 149 135 117 146 136 119 168 128 189 146 80 334 3 281 16 277 302 294 284 227 200 195 196 329
267 281 293 290 294 299 306 341 347 338 350 70 194 136 165 169 133 64 153 139 148 137 134 193 154 147 169 256 161 154 78 73 74 115 16 343 61 273 343 267 240 223 215 218 318
306 266 280 283 284 276 268 23 273 9 228 289 116 155 104 176 161 144 143 103 106 103 46 99 91 105 122 81 71 142 91 53 48 46 13 264 108 275 208 217 228 205 211 233 331
314 259 260 257 264 251 217 137 76 217 337 256 221 122 277 181 200 191 172 161 157 117 191 77 149 108 128 109 17 90 73 342 350 7 222 360 308 248 258 244 227 206 193 280 330
321 321 257 247 250 239 166 55 183 183 266 337 93 83 212 169 221 172 138 223 230 106 119 155 293 163 154 174 192 157 154 154 218 247 280 332 235 250 219 299 247 196 195 308 334
301 297 265 246 241 238 171 243 216 199 149 232 42 196 242 236 270 173 201 219 201 180 173 139 173 86 46 72 73 200 126 132 101 55 40 255 286 288 246 253 186 211 250 325 336
312 307 262 242 241 206 156 226 238 145 119 106 174 171 238 221 187 227 172 213 181 184 139 187 96 34 146 90 50 139 142 78 4 92 297 283 279 244 292 274 233 243 249 330 331
310 280 244 219 204 189 211 217 207 213 151 174 191 139 173 252 233 239 226 295 131 132 96 138 103 80 89 200 178 130 359 46 112 120 174 277 262 218 225 233 238 232 240 334 329
286 259 228 185 175 205 221 185 180 167 173 167 130 171 183 172 195 245 231 222 172 164 162 185 129 161 193 20 192 169 181 159 124 227 159 140 270 195 226 248 232 231 255 316 320
283 268 209 189 221 219 178 238 198 152 193 185 165 159 155 166 220 228 270 350 174 161 152 191 264 72 350 14 2 220 186 123 114 92 197 141 262 170 244 221 236 246 277 309 311
267 271 211 210 238 229 221 227 219 205 186 180 127 109 128 177 240 184 258 49 196 167 107 113 115 184 192 163 127 190 181 171 137 132 182 229 280 283 277 262 258 272 297 305 303
213 253 262 215 226 225 204 186 204 195 209 171 124 198 166 170 167 213 209 116 347 176 75 138 210 186 247 219 196 219 180 178 203 190 190 269 222 261 266 270 284 299 300 298 298
213 226 286 313 285 203 223 220 215 192 163 198 182 188 193 173 192 186 156 179 198 109 157 84 223 143 291 299 184 257 215 197 219 219 257 264 283 272 273 277 271 279 283 284 298
254 232 244 272 305 280 218 226 234 149 216 183 199 143 192 221 118 100 131 139 190 158 167 157 144 122 262 357 312 284 227 198 184 193 196 200 237 337 277 249 264 280 276 276 283